Weather Roundup
Issued by NWS

Home | Current Version | Previous Version | Text Only | Print | Product List | Glossary On
Versions: 1 2 3 4 5 6 7 8 9 10 11 12 13 14 15 16 17 18 19 20 21 22 23 24 25 26 27 28 29 30 31 32 33 34 35 36 37 38 39 40 41 42 43 44 45 46 47 48 49 50
000
NZUS93 KARX 291159
HRRWXR

CURRENT HOURLY OBSERVATIONS ACROSS
MUCH OF THE UPPER MISSISSIPPI VALLEY
NATIONAL WEATHER SERVICE LA CROSSE WI
700 AM CDT SAT AUG 29 2015


...SOUTHEAST MINNESOTA...


CITY           SKY/WX    TMP DP  RH WIND       PRES   REMARKS
ROCHESTER      FOG       58  57  97 NE6       30.04R VSB 1/4
ROCHESTER/MAYO CLOUDY    58  58 100 NE5       30.04S VSB 1/2
WINONA         CLOUDY    59  57  94 NE3       30.05R
AUSTIN         FOG       61  57  88 NE5       30.02R VSB 1
ALBERT LEA     FOG       57  57 100 N3        30.04R VSB<1/4
DODGE CENTER   FOG       57  55  94 NE3       30.04R VSB 1/4
PRESTON        FOG       58  56  96 NE6       30.04R VSB 1/4
OWATONNA       CLOUDY    57  55  94 CALM      30.05R FOG
FARIBAULT      CLOUDY    57  55  94 CALM      30.05R FOG
$$

...ELSEWHERE IN MINNESOTA...


CITY           SKY/WX    TMP DP  RH WIND       PRES   REMARKS
MINNEAPOLIS    MOCLDY    57  54  89 E7        30.05S
INTNL FALLS    CLOUDY    66  63  90 S5        29.96R
DULUTH         CLOUDY    58  56  93 SW8       30.02F
RED WING       CLOUDY    57  55  94 E6        30.04R FOG
REDWOOD FALLS  FOG       51  51 100 S3        30.05R VSB 1/4
MANKATO        CLOUDY    57  54  88 CALM      30.05R VSB<1/4
WORTHINGTON    CLOUDY    54  50  87 CALM      30.06R VSB<1/4
FAIRMONT       CLOUDY    55  52  88 CALM      30.04R VSB<1/4
$$

...SOUTHWEST WISCONSIN...


CITY           SKY/WX    TMP DP  RH WIND       PRES   REMARKS
LA CROSSE      CLOUDY    61  58  90 N3        30.04R
PRAIRIE DU CHI CLOUDY    63  62  96 N3        29.98R
BOSCOBEL       CLOUDY    63  62  97 NE5       30.00R FOG
LONE ROCK      NOT AVBL
PLATTEVILLE    CLOUDY    64  64  99 SE3       29.98R
FORT MC COY    CLOUDY    58  57  94 NE7       30.05R
VIROQUA        CLOUDY    58  58 100 NE6       30.02R
WIS DELLS      DRIZZLE   59  58  96 E8        30.02R
$$

...ELSEWHERE IN WISCONSIN...


CITY           SKY/WX    TMP DP  RH WIND       PRES   REMARKS
MILWAUKEE      RAIN      57  56  96 NE5       30.07R FOG
MADISON        DRIZZLE   62  60  93 E6        30.01R FOG
GREEN BAY      CLOUDY    60  59  96 NE3       30.09S FOG
EAU CLAIRE     NOT AVBL
BLACK RVR FLS  CLOUDY    59  59 100 NE3       30.05R
MEDFORD        CLOUDY    54  54 100 NE5       30.10S FOG
WAUSAU         CLOUDY    58  55  90 CALM      30.08R
WIS RAPIDS     LGT RAIN  59  56  89 E7        30.07S FOG
MARSHFIELD     CLOUDY    59  55  87 NE5       30.08R FOG
RICE LAKE      PTCLDY    52  51  95 CALM      30.09F
$$

...NORTHEAST IOWA...


CITY           SKY/WX    TMP DP  RH WIND       PRES   REMARKS
DECORAH        FOG       61  61 100 NE5       29.99R VSB 1
MASON CITY     FOG       59  59 100 N7        30.04R VSB 1/2
CHARLES CITY   FOG       61  61 100 N6        30.01R VSB 1/2
OELWEIN        FOG       63  63 100 N7        29.98R VSB 1/4
$$

...ELSEWHERE IN IOWA...


CITY           SKY/WX    TMP DP  RH WIND       PRES   REMARKS
DES MOINES     CLOUDY    64  61  90 N8        29.97R
IOWA CITY      CLOUDY    67  67 100 CALM      29.96S
FORT DODGE     CLOUDY    59  55  88 N6        30.03R
$$

...NORTHERN ILLINOIS...


CITY           SKY/WX    TMP DP  RH WIND       PRES   REMARKS
CHICAGO-OHARE  LGT RAIN  63  62  97 SE6       30.04R FOG
CHICAGO-MIDWAY LGT RAIN  66  61  84 SE8       30.04S
MOLINE         CLOUDY    69  62  78 SW5       29.96R
ROCKFORD       LGT RAIN  64  61  90 E7        30.02R
PEORIA         CLOUDY    69  63  81 S8        29.99S
$$

NOTE: "FAIR" INDICATES FEW OR NO CLOUDS BELOW 12,000 FEET WITH NO
SIGNIFICANT WEATHER AND/OR OBSTRUCTIONS TO VISIBILITY. WIND
SPEEDS ARE IN MILES-PER-HOUR.



USA.gov is the U.S. government's official web portal to all federal, state and local government web resources and services.